EW9581 Weather Reports


time (UTC)temp
C
wind
direction
speed
KPH
gust
KPH
rain 1hr
cm
rain 24hr
cm
rain mn
cm
humidity
%
barometer
mb
20260502183001 15 131 0.0 3.2 0.00 0.03 0.03 65 1014.3
20260502181603 15 91 0.0 3.2 0.00 0.03 0.03 70 1014.4
20260502163048 13 117 0.0 1.6 0.00 0.03 0.03 72 1016.0
20260502161539 12 169 0.0 1.6 0.00 0.03 0.03 73 1016.2
20260502151557 12 110 0.0 1.6 0.03 0.03 0.03 71 1015.7
20260502123005 11 148 0.0 1.6 0.00 0.00 0.00 69 1015.0
20260502121505 11 143 0.0 1.6 0.00 0.00 0.00 68 1014.7
20260502114505 11 95 0.0 0.0 0.00 0.00 0.00 64 1014.8
20260502113004 11 94 0.0 0.0 0.00 0.00 0.00 62 1014.7
20260502111503 11 94 0.0 0.0 0.00 0.00 0.00 65 1014.9
20260502110004 11 146 0.0 0.0 0.00 0.00 0.00 68 1014.9
20260502104502 11 146 0.0 1.6 0.00 0.00 0.00 68 1014.8
20260502103002 11 146 0.0 1.6 0.00 0.00 0.00 67 1015.1
20260502101619 11 146 0.0 4.8 0.00 0.00 0.00 63 1015.0
20260502100104 11 124 0.0 1.6 0.00 0.00 0.00 53 1015.0
20260502090113 10 124 0.0 0.0 0.00 0.00 0.00 42 1014.6
20260502064556 10 124 0.0 0.0 0.00 0.00 0.00 48 1014.3
20260502063050 10 124 0.0 0.0 0.00 0.00 0.00 50 1014.3
20260502061541 10 124 0.0 0.0 0.00 0.00 0.00 53 1014.3
20260502060041 10 124 0.0 0.0 0.00 0.00 0.00 52 1014.2
20260502054538 10 124 0.0 0.0 0.00 0.00 0.00 53 1014.4
20260502053036 10 124 0.0 0.0 0.00 0.00 0.00 53 1014.4
20260502051534 10 124 0.0 0.0 0.00 0.00 0.00 54 1014.6
20260502050039 10 124 0.0 0.0 0.00 0.00 0.00 54 1014.7
20260502044532 10 124 0.0 0.0 0.00 0.00 0.00 55 1014.8
20260502043029 10 124 0.0 0.0 0.00 0.00 0.00 60 1014.9
20260502041528 10 124 0.0 0.0 0.00 0.00 0.00 64 1015.0
20260502040023 10 124 0.0 0.0 0.00 0.00 0.00 67 1015.1
20260502034524 10 124 0.0 0.0 0.00 0.00 0.00 69 1015.3
20260502033022 11 124 0.0 0.0 0.00 0.00 0.00 72 1015.1
20260502031521 11 124 0.0 0.0 0.00 0.00 0.00 73 1015.1
20260502030021 11 113 0.0 1.6 0.00 0.00 0.00 74 1015.1
20260502024520 11 129 0.0 0.0 0.00 0.00 0.00 74 1015.2
20260502023018 11 132 0.0 0.0 0.00 0.00 0.00 75 1015.2
20260502021517 11 132 0.0 0.0 0.00 0.00 0.00 75 1015.3
20260502020016 11 134 0.0 1.6 0.00 0.00 0.00 76 1015.3
20260502014516 11 125 0.0 3.2 0.00 0.00 0.00 76 1015.0
20260502013015 11 105 0.0 0.0 0.00 0.00 0.00 76 1015.1
20260502011515 11 105 0.0 1.6 0.00 0.00 0.00 76 1015.0
20260502010015 11 124 0.0 0.0 0.00 0.00 0.00 77 1014.7
20260502004514 11 124 0.0 0.0 0.00 0.00 0.00 76 1014.7
20260502003012 12 124 0.0 1.6 0.00 0.00 0.00 76 1014.5
20260502001518 12 120 0.0 3.2 0.00 0.00 0.00 75 1014.4
20260502000012 13 116 0.0 1.6 0.00 0.00 0.00 75 1014.2
20260501234511 13 120 0.0 3.2 0.00 0.00 0.00 73 1014.3
20260501233011 14 118 0.0 3.2 0.00 0.00 0.00 72 1014.3
20260501231510 14 118 0.0 6.4 0.00 0.00 0.00 70 1014.2
20260501230011 15 165 0.0 8.0 0.00 0.00 0.00 69 1014.2
20260501224510 15 118 1.6 8.0 0.00 0.00 0.00 68 1014.3
20260501223006 15 117 4.8 11.3 0.00 0.00 0.00 66 1014.5
20260501221511 15 110 0.0 9.7 0.00 0.00 0.00 65 1014.6
20260501220016 15 105 1.6 11.3 0.00 0.00 0.00 63 1014.7
20260501214507 16 129 1.6 9.7 0.00 0.00 0.00 64 1014.8
20260501213003 16 126 1.6 9.7 0.00 0.00 0.00 63 1014.8
20260501211505 16 113 1.6 9.7 0.00 0.00 0.00 63 1014.8
20260501210003 17 127 4.8 14.5 0.00 0.00 0.00 58 1014.7
20260501204501 18 156 4.8 17.7 0.00 0.00 0.00 51 1014.6
20260501203102 18 117 3.2 11.3 0.00 0.00 0.00 49 1014.5
20260501201600 19 122 0.0 9.7 0.00 0.00 0.00 49 1014.5
20260501200058 18 130 1.6 9.7 0.00 0.00 0.00 48 1014.7
20260501194602 19 129 3.2 11.3 0.00 0.00 0.00 44 1015.1
20260501193057 19 137 3.2 14.5 0.00 0.00 0.00 44 1015.2
20260501191556 20 101 1.6 11.3 0.00 0.00 0.00 43 1015.4
20260501190054 21 124 0.0 8.0 0.00 0.00 0.00 44 1015.6
20260501184555 20 126 0.0 9.7 0.00 0.00 0.00 44 1016.0